{"data":{"norad_id":58306,"epoch":"2026-06-04T04:47:07.171584Z","epoch_age_seconds":9371566,"freshness":"OLD","line1":"1 58306U 23174BC  26155.19938856  .00100659  00000+0  12782-2 0  9999","line2":"2 58306  97.3823 246.9780 0005397 178.3794 181.7480 15.59061008143849","mean_motion":15.59061008,"eccentricity":0.0005397,"inclination_deg":97.3823,"raan_deg":246.978,"arg_perigee_deg":178.3794,"mean_anomaly_deg":181.748,"bstar":0.0012782,"rev_number":14384,"period_min":92.363287428198,"perigee_km":386.72044684271,"apogee_km":394.02637698133,"semimajor_km":6768.510411912,"source":"CELESTRAK","updated_at":"2026-06-05T09:00:53.049901Z"}}